FW9069 Weather Reports


Display with metric or nautical units.
time (UTC)temp
F
wind
direction
speed
MPH
gust
MPH
rain 1hr
in
rain 24hr
in
rain mn
in
humidity
%
barometer
mb
20260505053319 52 179 3.0 7.0 0.00 0.00 0.00 89 1013.8
20260505051848 53 232 3.0 6.0 0.00 0.00 0.00 88 1013.8
20260505050336 53 181 2.0 6.0 0.00 0.00 0.00 88 1013.6
20260505040359 55 181 4.0 10.0 0.00 0.00 0.00 84 1012.7
20260505034826 56 203 8.0 13.0 0.00 0.00 0.00 82 1012.4
20260505033338 57 237 8.0 14.0 0.00 0.00 0.00 80 1012.3
20260505031843 58 202 8.0 14.0 0.00 0.00 0.00 78 1012.0
20260505030332 60 216 9.0 16.0 0.00 0.00 0.00 75 1011.8
20260505024834 62 229 9.0 14.0 0.00 0.00 0.00 72 1011.8
20260505023323 64 215 5.0 9.0 0.00 0.00 0.00 70 1011.6
20260505021835 66 236 4.0 10.0 0.00 0.00 0.00 69 1011.7
20260505020323 68 220 5.0 10.0 0.00 0.00 0.00 67 1011.7
20260505014831 68 201 3.0 7.0 0.00 0.00 0.00 69 1011.7
20260505013337 68 179 4.0 9.0 0.00 0.00 0.00 70 1011.7
20260505011826 70 206 6.0 14.0 0.00 0.00 0.00 69 1011.8
20260505010334 70 184 4.0 9.0 0.00 0.00 0.00 71 1011.9
20260505004822 71 181 4.0 9.0 0.00 0.00 0.00 69 1011.9
20260505003331 71 205 4.0 11.0 0.00 0.00 0.00 68 1011.9
20260505001821 71 231 5.0 9.0 0.00 0.00 0.00 68 1011.8
20260505000330 73 128 2.0 7.0 0.00 0.00 0.00 67 1012.0
20260504234843 73 192 4.0 10.0 0.00 0.00 0.00 64 1012.1
20260504233352 74 221 3.0 11.0 0.00 0.00 0.00 66 1012.1
20260504231839 73 116 3.0 8.0 0.00 0.00 0.00 68 1012.3
20260504230325 72 134 4.0 11.0 0.00 0.00 0.00 69 1012.4
20260504224836 72 211 5.0 9.0 0.00 0.00 0.00 68 1012.4
20260504223342 71 207 1.0 9.0 0.00 0.00 0.00 71 1012.6
20260504221832 70 174 4.0 9.0 0.00 0.00 0.00 72 1012.7
20260504220338 71 180 2.0 10.0 0.00 0.00 0.00 70 1012.9
20260504214824 71 118 3.0 9.0 0.00 0.00 0.00 69 1013.1
20260504213336 71 181 4.0 9.0 0.00 0.00 0.00 66 1013.1
20260504211844 70 170 2.0 6.0 0.00 0.00 0.00 68 1013.3
20260504210331 70 169 4.0 8.0 0.00 0.00 0.00 69 1013.4
20260504204839 69 183 5.0 10.0 0.00 0.00 0.00 70 1013.7
20260504203327 68 129 4.0 8.0 0.00 0.00 0.00 74 1013.9
20260504201834 67 157 2.0 9.0 0.00 0.00 0.00 73 1013.8
20260504200326 65 138 2.0 8.0 0.00 0.00 0.00 75 1013.9
20260504194856 65 69 4.0 9.0 0.00 0.00 0.00 76 1013.9
20260504193326 64 174 2.0 10.0 0.00 0.00 0.00 75 1014.0
20260504191829 63 136 2.0 9.0 0.00 0.00 0.00 79 1014.1
20260504190341 62 127 3.0 10.0 0.00 0.00 0.00 78 1014.2
20260504184830 61 127 2.0 6.0 0.00 0.00 0.00 81 1014.4
20260504183321 60 148 2.0 7.0 0.00 0.00 0.00 82 1014.3
20260504181832 60 135 3.0 8.0 0.00 0.00 0.00 82 1014.3
20260504180323 59 172 3.0 7.0 0.00 0.00 0.00 83 1014.2
20260504174830 58 173 2.0 7.0 0.00 0.00 0.00 86 1014.3
20260504173338 57 104 2.0 6.0 0.00 0.00 0.00 86 1014.1
20260504171843 56 175 5.0 10.0 0.00 0.00 0.00 87 1014.3
20260504170333 56 152 4.0 10.0 0.00 0.00 0.00 87 1014.2
20260504160331 54 155 4.0 9.0 0.00 0.00 0.00 91 1014.0
20260504150325 53 147 3.0 8.0 0.00 0.00 0.00 93 1013.9
20260504140320 51 119 1.0 7.0 0.00 0.00 0.00 95 1013.3
20260504130327 51 172 2.0 7.0 0.00 0.00 0.00 93 1012.3
20260504110326 52 186 6.0 12.0 0.00 0.00 0.00 92 1011.3
20260504100323 53 180 6.0 9.0 0.00 0.00 0.00 90 1011.1
20260504081821 58 188 4.0 8.0 0.00 0.00 0.00 77 1010.2
20260504080326 61 204 6.0 10.0 0.00 0.00 0.00 72 1010.0
20260504070332 67 240 9.0 17.0 0.00 0.00 0.00 60 1009.5